Regional Weather Roundup
Issued by NWS Burlington, VT

Home | Current Version | Previous Version | Text Only | Print | Product List | Glossary On
Versions: 1 2 3 4 5 6 7 8 9 10 11 12 13 14 15 16 17 18 19 20 21 22 23 24 25 26 27 28 29 30 31 32 33 34 35 36 37 38 39 40 41 42 43 44 45 46 47 48 49 50
027
ASUS41 KBTV 232310
RWRBTV
VERMONT REGIONAL WEATHER ROUNDUP
NATIONAL WEATHER SERVICE BURLINGTON VT
600 PM EST THU NOV 23 2017

NOTE: "FAIR" INDICATES FEW OR NO CLOUDS BELOW 12,000 FEET WITH NO
SIGNIFICANT WEATHER AND/OR OBSTRUCTIONS TO VISIBILITY.

* THESE REPORTS ARE NOT UNDER NWS QUALITY CONTROL AND/OR DO NOT
  REPORT WEATHER SUCH AS PRECIPITATION AND FOG.

VTZ001>019-240000-
_____VERMONT_____


CITY           SKY/WX    TMP DP  RH WIND       PRES   REMARKS
BURLINGTON     CLOUDY    31  17  56 S6        29.96F WCI  25
MONTPELIER     CLOUDY    28  17  63 S7        29.96F WCI  21
MORRISVILLE    CLOUDY    26  18  71 CALM      29.95S
ST. JOHNSBURY*   N/A     29  18  63 MISG      29.94S
LYNDONVILLE*   CLOUDY    26  17  68 SE3       29.94S
MIDDLEBURY*    CLOUDY    31  17  56 S5        29.96F WCI  26
RUTLAND*       CLOUDY    27  20  75 SE5       29.96F WCI  22
SPRINGFIELD    CLOUDY    28  18  66 CALM      29.98S
HIGHGATE*      CLOUDY    29  19  64 S8        29.94S WCI  21
NEWPORT*       CLOUDY    26  16  67 S7        29.92F WCI  18
BENNINGTON     MOCLDY    27  20  75 SE3       29.97S
SUTTON*          N/A     23 N/A N/A MISG        N/A

_____LAKE CHAMPLAIN_____


CITY           SKY/WX    TMP DP  RH WIND       PRES   REMARKS
BURTON ISLAND*   N/A     32  25  74 S18G25      N/A  WCI  20
COLCHESTER RF*   N/A     34  27  75 S22         N/A  WCI  22
DIAMOND ISL*     N/A     32  21  64 S7          N/A  WCI  26

$$

NYZ007-026>031-035-052-083-087-240000-
_____NORTHERN NEW YORK_____


CITY           SKY/WX    TMP DP  RH WIND       PRES   REMARKS
PLATTSBURGH    CLOUDY    31  19  61 S7        29.95S WCI  24
SARANAC LAKE   CLOUDY    27  24  89 SW10      29.87R WCI  17
MASSENA        CLOUDY    32  26  78 S9        29.93S WCI  24
OGDENSBURG*    FAIR      33  28  83 S7        29.92S WCI  26
POTSDAM*       CLOUDY    32  30  93 SW12      29.92S WCI  23
WATERTOWN      CLOUDY    34  25  69 S9G18     29.94S WCI  27
FT DRUM        CLOUDY    32  24  71 SW12      29.91S WCI  23
ALBANY         MOCLDY    30  20  66 CALM      30.00F
GLENS FALLS    CLOUDY    29  23  78 CALM      29.98S

$$
NHZ002-005-011-240000-
_____NEW HAMPSHIRE_____


CITY           SKY/WX    TMP DP  RH WIND       PRES   REMARKS
LEBANON        PTCLDY    27  19  72 S3        29.96S
KEENE          CLOUDY    32  17  54 CALM      29.97F
MT WASHINGTON  CLOUDY    14  -6  41 W43         N/A  WCI -10
PLYMOUTH       MOCLDY    29  17  60 CALM      29.96S
WHITEFIELD     CLOUDY    26  19  74 CALM      29.94R

$$

_____REGIONAL QUEBEC LOCATIONS_____


CITY           SKY/WX    TMP DP  RH WIND       PRES   REMARKS
MONTREAL       CLOUDY    32  21  64 S10       29.91F WCI  24
QUEBEC CITY    FLURRIES  25  16  68 SW12      29.88F WCI  14
SHERBROOKE     CLOUDY    23  18  80 S3        29.90F

_____REGIONAL ONTARIO LOCATIONS_____


CITY           SKY/WX    TMP DP  RH WIND       PRES   REMARKS
OTTAWA         FLURRIES  30  27  86 S10       29.88R WCI  21

______KEY______
VSB  - VISIBILITY IN MILES
WCI  - WIND CHILL INDEX
HX   - HEAT INDEX
$$
NNNN




USA.gov is the U.S. government's official web portal to all federal, state and local government web resources and services.